Location: Leo
(52.0556°N, 112.3605°W)
Time: 06:50:15
(UTC+00:00)

BlueWalker 3 - Visible Passes

Search period start: 20 January 2026 00:00
Search period end: 30 January 2026 00:00
Orbit: 451 x 463 km, 53.2° (Epoch: 19 January)

Date Brightness Start Highest point End Pass type
(mag) Time Alt. Az. Time Alt. Az. Time Alt. Az.
21 Jan 4.1 01:47:51 10° SSE 01:48:25 11° SSE 01:48:25 11° SSE visible
22 Jan 4.0 02:47:20 10° SW 02:48:33 19° SSW 02:48:33 19° SSW visible
23 Jan 2.9 02:12:07 10° SSW 02:14:49 32° SSE 02:14:49 32° SSE visible
24 Jan 2.9 01:36:56 10° SSW 01:40:03 28° SE 01:41:01 24° ESE visible
24 Jan 4.4 03:13:41 10° WSW 03:14:46 19° WSW 03:14:46 19° WSW visible
25 Jan 3.3 01:01:48 10° SSW 01:04:43 23° SE 01:07:10 12° E visible
25 Jan 2.6 02:38:16 10° WSW 02:40:54 46° WSW 02:40:54 46° WSW visible
26 Jan 1.7 02:02:52 10° WSW 02:06:26 69° SSE 02:06:59 56° ESE visible
26 Jan 5.1 03:40:25 10° W 03:40:43 12° W 03:40:43 12° W visible
27 Jan 1.9 01:27:30 10° SW 01:31:00 60° SSE 01:33:01 23° E visible
27 Jan 3.8 03:04:56 10° W 03:06:45 28° W 03:06:45 28° W visible
28 Jan 2.2 00:52:07 10° SW 00:55:36 51° SSE 00:59:01 10° ENE visible
28 Jan 1.9 02:29:28 10° W 02:32:45 68° NW 02:32:45 68° NW visible
29 Jan 1.7 01:53:59 10° W 01:57:33 78° N 01:58:43 40° ENE visible
29 Jan 4.7 03:31:36 10° WNW 03:32:27 16° WNW 03:32:27 16° WNW visible
